Powrót do katalogu

HULIANWANG DIGUI-165

AktywnyŁącznośćPO
NORAD 68657·PAYLOAD·🇨🇳 China

Wystrzelony Apr 8, 2026 z Taiyuan Satellite Launch Center

Loading…

Następne Przeloty (najbliższe 24 godziny)

TLE

ŚwieżeSource: Space-Track

Epoka: Sep 14, 2026, 13:38 UTC

1 68657U 26076B   26257.56825704  .00000034  00000-0  45129-4 0  9994
2 68657  86.5048  13.7277 0001256 108.5964 251.5307 13.24409760 21203

Śledź HULIANWANG DIGUI-165 w czasie rzeczywistym z AllMySat

Download on the App Store